Flag for USA

Past Weather in Abilene, Texas, USA — Yesterday and Last 2 Weeks

Now
67 °F

Overcast.


Feels Like: 67 °F
Forecast: 75 / 66 °F
Wind: 3 mph from Northeast

Location: Abilene Regional Airport
Current Time: Sep 22, 2020 at 3:10:09 am
Latest Report: Sep 22, 2020 at 1:52 am
Visibility: 10 mi
Pressure30.03 "Hg(28.25 "Hg at 524m altitude)
Humidity: 87%
Dew Point: 63 °F
Location of AbileneLocation

Past Weather in Abilene — Graph

°F

Abilene Temperature Yesterday

Maximum temperature yesterday: 81 °F (at 4:52 pm)
Minimum temperature yesterday: 59 °F (at 12:52 am)
Average temperature yesterday: 70 °F

High & Low Weather Summary for the Past Weeks

 TemperatureHumidityPressure
High96 °F (Sep 7, 2:52 pm)100% (Sep 9, 3:23 am)30.33 "Hg (Sep 9, 3:23 am)
Low49 °F (Sep 10, 3:38 am)27% (Sep 7, 2:52 pm)29.65 "Hg (Sep 8, 4:52 pm)
Average69 °F74%30.05 "Hg
* Reported Sep 7 1:52 am — Sep 22 1:52 am, Abilene. Weather by CustomWeather, © 2020

Note: Actual official high and low records may vary slightly from our data, if they occured in-between our weather recording intervals... More about our weather records

Abilene Weather History for the Previous 24 Hours

Scroll right to see more
 ConditionsComfort  
Time TempWeatherWind HumidityBarometerVisibility
1:52 am
Tue, Sep 22
67 °FOvercast.3 mph87%30.03 "Hg10 mi
12:52 am67 °FClear.5 mph85%30.05 "Hg10 mi
11:52 pm
Mon, Sep 21
69 °FClear.3 mph79%30.06 "Hg10 mi
10:52 pm70 °FClear.8 mph71%30.05 "Hg10 mi
9:52 pm72 °FClear.3 mph61%30.04 "Hg10 mi
8:52 pm74 °FPassing clouds.6 mph60%30.03 "Hg10 mi
7:52 pm76 °FClear.7 mph56%30.03 "Hg10 mi
6:52 pm78 °FPartly sunny.9 mph50%30.02 "Hg10 mi
5:52 pm81 °FPartly sunny.9 mph47%30.01 "Hg10 mi
4:52 pm81 °FPassing clouds.10 mph45%30.01 "Hg10 mi
3:52 pm80 °FPassing clouds.9 mph47%30.02 "Hg10 mi
2:52 pm80 °FPassing clouds.10 mph47%30.06 "Hg10 mi
1:52 pm79 °FScattered clouds.10 mph50%30.09 "Hg10 mi
12:52 pm76 °FPassing clouds.7 mph60%30.11 "Hg10 mi
11:52 am72 °FSunny.5 mph68%30.13 "Hg9 mi
10:52 am70 °FSunny.6 mph71%30.14 "Hg9 mi
9:52 am67 °FPassing clouds.6 mph76%30.14 "Hg9 mi
8:52 am64 °FOvercast.5 mph75%30.14 "Hg9 mi
7:52 am61 °FSunny.3 mph83%30.12 "Hg9 mi
6:52 am62 °FOvercast.3 mph80%30.10 "Hg10 mi
5:52 am62 °FOvercast.3 mph78%30.09 "Hg10 mi
4:52 am61 °FOvercast.No wind78%30.09 "Hg10 mi
3:52 am61 °FOvercast.No wind75%30.09 "Hg10 mi
Weather by CustomWeather, © 2020

See weather overview